Weather History for Hibbing, MN

Change the Weather History Date:

Tuesday, January 14, 2014

  Actual Average Record
Temperature  
Mean Temperature 5 °F -  
Max Temperature 10 °F 15 °F 35 °F (1987)
Min Temperature 0 °F -4 °F -44 °F (1965)
Degree Days  
Heating Degree Days 60    
Moisture  
Dew Point 0 °F    
Average Humidity 75    
Maximum Humidity 84    
Minimum Humidity 64    
Precipitation  
Precipitation 0.00 in - - ()
Sea Level Pressure  
Sea Level Pressure 29.95 in    
Wind  
Wind Speed 9 mph (NNW)    
Max Wind Speed 16 mph    
Max Gust Speed -    
Visibility 9 miles    
Events Snow    
Averages and records for this station are not official NWS values.
T = Trace of Precipitation, MM = Missing Value Source: NWS Daily Summary

Daily Weather History Graph

Daily Weather History Graph

Search for Another Location

Airport:

Trip Planner

Search our weather history database for the weather conditions in past years. The results will help you decide how hot, cold, wet, or windy it might be!

Date:

Astronomy

Jan. 14, 2014 Rise Set
Actual Time 7:54 AM CST 4:46 PM CST
Civil Twilight 7:20 AM CST 5:21 PM CST
Nautical Twilight 6:41 AM CST 5:59 PM CST
Astronomical Twilight 6:05 AM CST 6:36 PM CST
Moon 3:54 PM CST (1/14) 6:27 AM CST (1/14)
Length of Visible Light 10h 01m
Length of Day
8h 52m
Waxing Gibbous, 98% of the Moon is Illuminated
Jan 14
Waxing Gibbous
Jan 15
Full
Jan 23
Last Quarter
Jan 30
New
Feb 6
First Quarter

Hourly Weather History & Observations

Time (CST) Temp. Windchill Dew Point Humidity Pressure Visibility Wind Dir Wind Speed Gust Speed Precip Events Conditions
12:53 AM -0.0 °F -7.9 °F -5.1 °F 79% 29.67 in 10.0 mi NNW 3.5 mph - N/A   Clear
1:53 AM 1.9 °F -9.2 °F -4.0 °F 76% 29.67 in 10.0 mi North 5.8 mph - N/A   Clear
2:53 AM 8.1 °F -0.5 °F 3.0 °F 80% 29.68 in 10.0 mi NNE 4.6 mph - N/A   Overcast
4:53 AM 10.0 °F 0.4 °F 3.9 °F 76% 29.74 in 10.0 mi North 5.8 mph - N/A   Overcast
5:53 AM 8.1 °F -6.2 °F 3.0 °F 80% 29.77 in 10.0 mi North 10.4 mph - N/A   Overcast
6:08 AM 8.6 °F -3.7 °F 3.2 °F 79% 29.68 in 10.0 mi North 8.1 mph - N/A   Overcast
7:53 AM 5.0 °F -9.1 °F 1.0 °F 84% 29.86 in 10.0 mi North 9.2 mph - N/A   Overcast
8:53 AM 5.0 °F -10.0 °F 1.0 °F 84% 29.90 in 10.0 mi North 10.4 mph - N/A   Overcast
9:53 AM 6.1 °F -10.2 °F 1.0 °F 80% 29.95 in 6.0 mi North 12.7 mph - N/A   Haze
10:29 AM 6.8 °F -9.3 °F 1.4 °F 79% 29.85 in 9.0 mi North 12.7 mph - 0.00 in   Overcast
10:53 AM 8.1 °F -7.0 °F 1.9 °F 76% 29.98 in 6.0 mi NNW 11.5 mph - 0.00 in   Haze
11:42 AM 8.6 °F -5.5 °F 1.4 °F 73% 29.88 in 9.0 mi North 10.4 mph - 0.00 in   Overcast
11:53 AM 8.1 °F -9.6 °F 1.9 °F 76% 30.00 in 4.0 mi NNW 16.1 mph - 0.00 in Snow Light Snow
12:53 PM 10.0 °F -6.5 °F 1.9 °F 70% 30.00 in 10.0 mi NNW 15.0 mph - 0.00 in   Mostly Cloudy
1:37 PM 10.4 °F -4.1 °F 1.4 °F 67% 29.90 in 10.0 mi NW 11.5 mph - N/A   Scattered Clouds
1:53 PM 10.9 °F -3.4 °F 1.9 °F 67% 30.01 in 10.0 mi NNW 11.5 mph - N/A   Partly Cloudy
2:53 PM 10.9 °F -5.4 °F 1.9 °F 67% 30.04 in 10.0 mi NW 15.0 mph - N/A   Clear
3:53 PM 10.0 °F -3.7 °F 1.0 °F 67% 30.06 in 10.0 mi NNW 10.4 mph - N/A   Clear
4:53 PM 9.0 °F -5.1 °F -0.9 °F 64% 30.07 in 10.0 mi NW 10.4 mph - N/A   Partly Cloudy
5:53 PM 5.0 °F -10.0 °F -2.0 °F 73% 30.11 in 10.0 mi NW 10.4 mph - N/A   Clear
6:53 PM 5.0 °F -11.6 °F -2.0 °F 73% 30.13 in 10.0 mi NW 12.7 mph - N/A   Clear
7:53 PM 5.0 °F -10.0 °F -2.0 °F 73% 30.14 in 10.0 mi NNW 10.4 mph - N/A   Clear
8:53 PM 3.0 °F -12.5 °F -2.9 °F 76% 30.15 in 10.0 mi NNW 10.4 mph - N/A   Clear
9:53 PM 1.9 °F -13.8 °F -4.0 °F 76% 30.16 in 10.0 mi NNW 10.4 mph - N/A   Clear
10:53 PM 1.9 °F -16.2 °F -4.0 °F 76% 30.15 in 10.0 mi NNW 13.8 mph - N/A   Clear
11:53 PM -0.0 °F -16.3 °F -5.1 °F 79% 30.15 in 10.0 mi NW 10.4 mph - N/A   Partly Cloudy